MET993 - Jakarta to Hong Kong

Airbus A330-243
787MT
4 hrs 15 mins
1762 nm
Scheduled - SU | W | F | SA

Bid/PiRep Status

Bid was submitted on Jan 01 2017.

PiRep # 74567: Approved by Sean Doyle on January 2nd, 2017 15:14 UTC

Departure

Departing from
Jakarta (CGK)
Departure gate
Ramp
Scheduled Departure
GMT 1215
Local 1915
METAR WIII 270800Z 04011KT 7000 SCT021 32/24 Q1006 NOSIG
TAF TAF WIII 270500Z 2706/2812 07010KT 9999 FEW020 BECMG 2716/2718 22004KT 5000 HZ SCT020 BECMG 2802/2804 10010KT 9999 NSW FEW022
  • No charts available

Arrival

Arriving at
Hong Kong (HKG)
Arrival gate
Terminal 1
Scheduled Arrival
GMT 1630
Local 0030
METAR VHHH 270800Z 27008KT CAVOK 30/15 Q1008 NOSIG
TAF TAF VHHH 270500Z 2706/2812 09010KT 9000 FEW035 TX30/2706Z TX31/2806Z TN24/2723Z TEMPO 2706/2709 30010KT TEMPO 2806/2809 30010KT

Route Map

Planning Resources

DKI P648 OSUKA M772 DULOP M771 DUMOL
AMBO1B AMBOY P648 OSUKA M772 DULOP Q1 CARSO V551 BETTY BETY2B
JAKARTA2 DEDNY B592 OSUKA M772 DUMOL DUMOL1A
WIII DKI ATOSO OSUKA ANIPU VSB TAMIB DARMU ASISU VAVUM DABGI DUM OL CH VHHH
AMBO1B AMBOY P648 OSUKA M772 DULOP Q1 CARSO
Route:
OFP Layout:
Units:
Detailed Navlog:
ETOPS Planning:
Plan Stepclimbs:
Runway Analysis:
Include NOTAMS:
FIR NOTAMS:
Flight Maps:

Return Flights

MET992
Airbus A330-243
0700 GMT

Popularity

Hub Current Bids PiReps this month Total PiReps
KMCI 0 0 3
KLAX 0 0 4
KBOS 0 0 0